Location: Unspecified
(0.0000°N, 0.0000°E)
Time: 05:11:43
(UTC+02:00)

SWIFT - Visible Passes

Search period start: 20 April 2014 00:00
Search period end: 30 April 2014 00:00
Orbit: 562 x 580 km, 20.6° (Epoch: 18 April)

Date Brightness Start Highest point End Pass type
(mag) Time Alt. Az. Time Alt. Az. Time Alt. Az.
20 Apr 5.4 05:30:28 14° ENE 05:30:28 14° ENE 05:31:05 10° ENE visible
20 Apr 3.9 07:06:28 14° WNW 07:09:08 24° NNW 07:12:39 10° NE visible
21 Apr 5.4 05:30:31 13° ENE 05:30:31 13° ENE 05:31:02 10° ENE visible
21 Apr 4.4 07:06:31 11° WNW 07:09:13 18° NNW 07:12:08 10° NNE visible
22 Apr 5.4 05:30:31 12° NE 05:30:31 12° NE 05:30:50 10° NE visible
22 Apr 4.7 07:07:22 10° NW 07:09:20 13° NNW 07:11:19 10° N visible
23 Apr 5.5 05:30:28 10° NE 05:30:28 10° NE 05:30:30 10° NE visible
